Time,TemperatureF,DewpointF,PressureIn,WindDirection,WindDirectionDegrees,WindSpeedMPH,WindSpeedGustMPH,Humidity,HourlyPrecipIn,Conditions,Clouds,dailyrainin,SoftwareType,DateUTC
2013-03-10 00:00:00,31.1,27.4,30.27,SSW,201,1.0,6.0,86,0.00,,---,0.00,VWS V14.01,2013-03-10 05:00:00,
2013-03-10 00:05:00,31.2,27.5,30.27,SSW,192,4.0,6.0,86,0.00,,---,0.00,VWS V14.01,2013-03-10 05:05:00,
2013-03-10 00:10:00,31.2,27.5,30.27,SSW,209,1.0,3.0,86,0.00,,---,0.00,VWS V14.01,2013-03-10 05:10:00,
2013-03-10 00:15:00,31.2,27.2,30.27,SSW,209,2.0,4.0,85,0.00,,---,0.00,VWS V14.01,2013-03-10 05:15:00,
2013-03-10 00:20:00,31.1,27.1,30.27,SSW,210,0.0,3.0,85,0.00,,---,0.00,VWS V14.01,2013-03-10 05:20:00,
2013-03-10 00:25:00,31.0,27.3,30.27,SSW,204,4.0,4.0,86,0.00,,---,0.00,VWS V14.01,2013-03-10 05:25:00,
2013-03-10 00:30:00,30.8,26.8,30.27,SSW,198,1.0,5.0,85,0.00,,---,0.00,VWS V14.01,2013-03-10 05:30:00,
2013-03-10 00:35:00,30.6,26.6,30.27,SSW,198,0.0,3.0,85,0.00,,---,0.00,VWS V14.01,2013-03-10 05:35:00,
2013-03-10 00:40:00,30.4,26.4,30.27,SSW,202,1.0,5.0,85,0.00,,---,0.00,VWS V14.01,2013-03-10 05:40:00,
2013-03-10 00:45:00,30.3,26.6,30.27,SSW,201,2.0,5.0,86,0.00,,---,0.00,VWS V14.01,2013-03-10 05:45:00,
2013-03-10 00:50:00,30.3,26.6,30.27,SSW,202,2.0,3.0,86,0.00,,---,0.00,VWS V14.01,2013-03-10 05:50:00,
2013-03-10 00:55:00,30.2,26.5,30.27,SSW,202,0.0,3.0,86,0.00,,---,0.00,VWS V14.01,2013-03-10 05:55:00,
2013-03-10 01:00:00,30.1,26.7,30.27,SSW,201,0.0,3.0,87,0.00,,---,0.00,VWS V14.01,2013-03-10 06:00:00,
2013-03-10 01:05:00,30.1,26.7,30.27,SSW,202,0.0,0.0,87,0.00,,---,0.00,VWS V14.01,2013-03-10 06:05:00,
2013-03-10 01:10:00,30.0,26.6,30.26,SSW,202,0.0,3.0,87,0.00,,---,0.00,VWS V14.01,2013-03-10 06:10:00,
2013-03-10 01:15:00,29.8,26.4,30.27,SSW,202,0.0,2.0,87,0.00,,---,0.00,VWS V14.01,2013-03-10 06:15:00,
2013-03-10 01:20:00,29.9,26.8,30.26,SSW,202,0.0,1.0,88,0.00,,---,0.00,VWS V14.01,2013-03-10 06:20:00,
2013-03-10 01:25:00,29.8,26.4,30.26,SSW,202,1.0,2.0,87,0.00,,---,0.00,VWS V14.01,2013-03-10 06:25:00,
2013-03-10 01:30:00,29.9,26.5,30.26,SSW,206,3.0,4.0,87,0.00,,---,0.00,VWS V14.01,2013-03-10 06:30:00,
2013-03-10 01:35:00,29.9,26.5,30.26,SSW,207,0.0,2.0,87,0.00,,---,0.00,VWS V14.01,2013-03-10 06:35:00,
2013-03-10 01:40:00,29.7,26.3,30.26,SSW,207,0.0,0.0,87,0.00,,---,0.00,VWS V14.01,2013-03-10 06:40:00,
2013-03-10 01:45:00,29.6,26.2,30.26,SSW,207,0.0,3.0,87,0.00,,---,0.00,VWS V14.01,2013-03-10 06:45:00,
2013-03-10 01:50:00,29.5,26.1,30.25,SSW,207,0.0,1.0,87,0.00,,---,0.00,VWS V14.01,2013-03-10 06:50:00,
2013-03-10 01:55:00,29.6,26.2,30.25,SSW,207,0.0,0.0,87,0.00,,---,0.00,VWS V14.01,2013-03-10 06:55:00,
2013-03-10 03:00:00,29.2,25.8,30.25,SSW,207,0.0,0.0,87,0.00,,---,0.00,VWS V14.01,2013-03-10 07:00:00,
2013-03-10 03:05:00,28.8,25.1,30.25,SSW,207,0.0,3.0,86,0.00,,---,0.00,VWS V14.01,2013-03-10 07:05:00,
2013-03-10 03:10:00,28.9,25.5,30.25,SSW,206,1.0,2.0,87,0.00,,---,0.00,VWS V14.01,2013-03-10 07:10:00,
2013-03-10 03:15:00,29.2,26.1,30.25,SSW,206,0.0,3.0,88,0.00,,---,0.00,VWS V14.01,2013-03-10 07:15:00,
2013-03-10 03:20:00,29.3,26.2,30.25,SSW,206,0.0,2.0,88,0.00,,---,0.00,VWS V14.01,2013-03-10 07:20:00,
2013-03-10 03:25:00,29.2,25.8,30.25,SSW,206,2.0,2.0,87,0.00,,---,0.00,VWS V14.01,2013-03-10 07:25:00,
2013-03-10 03:30:00,29.1,25.7,30.25,South,189,1.0,4.0,87,0.00,,---,0.00,VWS V14.01,2013-03-10 07:30:00,
2013-03-10 03:35:00,29.2,25.8,30.24,SSW,192,2.0,4.0,87,0.00,,---,0.00,VWS V14.01,2013-03-10 07:35:00,
2013-03-10 03:40:00,29.2,25.8,30.24,SSW,192,2.0,3.0,87,0.00,,---,0.00,VWS V14.01,2013-03-10 07:40:00,
2013-03-10 03:45:00,29.1,25.7,30.24,SSW,199,1.0,3.0,87,0.00,,---,0.00,VWS V14.01,2013-03-10 07:45:00,
2013-03-10 03:50:00,29.0,25.6,30.24,SSW,199,2.0,3.0,87,0.00,,---,0.00,VWS V14.01,2013-03-10 07:50:00,
2013-03-10 03:55:00,28.9,25.8,30.24,SSW,201,3.0,4.0,88,0.00,,---,0.00,VWS V14.01,2013-03-10 07:55:00,
2013-03-10 04:00:00,28.8,25.7,30.24,SSW,203,1.0,4.0,88,0.00,,---,0.00,VWS V14.01,2013-03-10 08:00:00,
2013-03-10 04:05:00,28.8,25.7,30.24,SSW,203,1.0,3.0,88,0.00,,---,0.00,VWS V14.01,2013-03-10 08:05:00,
2013-03-10 04:10:00,28.8,25.7,30.24,SSW,203,1.0,2.0,88,0.00,,---,0.00,VWS V14.01,2013-03-10 08:10:00,
2013-03-10 04:15:00,28.8,25.7,30.24,SSW,203,0.0,2.0,88,0.00,,---,0.00,VWS V14.01,2013-03-10 08:15:00,
2013-03-10 04:20:00,28.7,25.6,30.23,SSW,203,0.0,0.0,88,0.00,,---,0.00,VWS V14.01,2013-03-10 08:20:00,
2013-03-10 04:25:00,28.5,25.4,30.23,SSW,203,0.0,2.0,88,0.00,,---,0.00,VWS V14.01,2013-03-10 08:25:00,
2013-03-10 04:30:00,28.4,25.3,30.23,SSW,203,0.0,0.0,88,0.00,,---,0.00,VWS V14.01,2013-03-10 08:30:00,
2013-03-10 04:35:00,28.4,25.3,30.23,SSW,203,0.0,2.0,88,0.00,,---,0.00,VWS V14.01,2013-03-10 08:35:00,
2013-03-10 04:40:00,28.4,25.3,30.23,SSW,203,0.0,3.0,88,0.00,,---,0.00,VWS V14.01,2013-03-10 08:40:00,
2013-03-10 04:45:00,28.3,25.2,30.24,SSW,203,0.0,1.0,88,0.00,,---,0.00,VWS V14.01,2013-03-10 08:45:00,
2013-03-10 04:50:00,28.3,25.2,30.24,SSW,202,1.0,2.0,88,0.00,,---,0.00,VWS V14.01,2013-03-10 08:50:00,
2013-03-10 04:55:00,28.3,25.2,30.24,SSW,202,1.0,1.0,88,0.00,,---,0.00,VWS V14.01,2013-03-10 08:55:00,
2013-03-10 05:00:00,28.2,25.1,30.24,SSW,202,0.0,2.0,88,0.00,,---,0.00,VWS V14.01,2013-03-10 09:00:00,
2013-03-10 05:05:00,28.0,24.9,30.24,SSW,203,0.0,0.0,88,0.00,,---,0.00,VWS V14.01,2013-03-10 09:05:00,
2013-03-10 05:10:00,27.9,24.8,30.24,SSW,203,1.0,2.0,88,0.00,,---,0.00,VWS V14.01,2013-03-10 09:10:00,
2013-03-10 05:15:00,27.9,24.8,30.24,SSW,204,2.0,4.0,88,0.00,,---,0.00,VWS V14.01,2013-03-10 09:15:00,
2013-03-10 05:20:00,27.9,25.1,30.24,SSW,207,0.0,4.0,89,0.00,,---,0.00,VWS V14.01,2013-03-10 09:20:00,
2013-03-10 05:25:00,27.9,25.1,30.24,SSW,209,4.0,5.0,89,0.00,,---,0.00,VWS V14.01,2013-03-10 09:25:00,
2013-03-10 05:30:00,27.9,25.1,30.24,SSW,209,0.0,3.0,89,0.00,,---,0.00,VWS V14.01,2013-03-10 09:30:00,
2013-03-10 05:35:00,27.9,25.1,30.24,SSW,208,0.0,3.0,89,0.00,,---,0.00,VWS V14.01,2013-03-10 09:35:00,
2013-03-10 05:40:00,27.9,25.1,30.24,SSW,203,4.0,5.0,89,0.00,,---,0.00,VWS V14.01,2013-03-10 09:40:00,
2013-03-10 05:45:00,27.8,25.0,30.24,SSW,204,0.0,6.0,89,0.00,,---,0.00,VWS V14.01,2013-03-10 09:45:00,
2013-03-10 05:50:00,27.8,25.0,30.24,SSW,205,1.0,4.0,89,0.00,,---,0.00,VWS V14.01,2013-03-10 09:50:00,
2013-03-10 05:55:00,27.7,24.9,30.24,SSW,201,1.0,5.0,89,0.00,,---,0.00,VWS V14.01,2013-03-10 09:55:00,
2013-03-10 06:00:00,27.8,25.0,30.24,SSW,202,2.0,5.0,89,0.00,,---,0.00,VWS V14.01,2013-03-10 10:00:00,
2013-03-10 06:05:00,27.8,25.0,30.24,SSW,202,0.0,4.0,89,0.00,,---,0.00,VWS V14.01,2013-03-10 10:05:00,
2013-03-10 06:10:00,27.8,25.0,30.24,SSW,205,4.0,5.0,89,0.00,,---,0.00,VWS V14.01,2013-03-10 10:10:00,
2013-03-10 06:15:00,27.9,25.1,30.24,SW,217,2.0,5.0,89,0.00,,---,0.00,VWS V14.01,2013-03-10 10:15:00,
2013-03-10 06:20:00,27.9,25.1,30.24,SW,217,0.0,0.0,89,0.00,,---,0.00,VWS V14.01,2013-03-10 10:20:00,
2013-03-10 06:25:00,27.8,25.0,30.24,SW,217,2.0,3.0,89,0.00,,---,0.00,VWS V14.01,2013-03-10 10:25:00,
2013-03-10 06:30:00,27.8,25.0,30.24,SW,217,2.0,3.0,89,0.00,,---,0.00,VWS V14.01,2013-03-10 10:30:00,
2013-03-10 06:35:00,27.9,25.1,30.24,SW,217,0.0,0.0,89,0.00,,---,0.00,VWS V14.01,2013-03-10 10:35:00,
2013-03-10 06:40:00,27.8,24.7,30.23,SW,217,0.0,0.0,88,0.00,,---,0.00,VWS V14.01,2013-03-10 10:40:00,
2013-03-10 06:45:00,27.8,25.0,30.24,SW,217,0.0,0.0,89,0.00,,---,0.00,VWS V14.01,2013-03-10 10:45:00,
2013-03-10 06:50:00,27.4,24.3,30.24,SW,217,2.0,3.0,88,0.00,,---,0.00,VWS V14.01,2013-03-10 10:50:00,
2013-03-10 06:55:00,27.4,24.6,30.24,SW,217,0.0,0.0,89,0.00,,---,0.00,VWS V14.01,2013-03-10 10:55:00,
2013-03-10 07:00:00,27.3,24.5,30.24,SW,217,0.0,1.0,89,0.00,,---,0.00,VWS V14.01,2013-03-10 11:00:00,
2013-03-10 07:05:00,27.3,24.5,30.24,SSW,211,2.0,3.0,89,0.00,,---,0.00,VWS V14.01,2013-03-10 11:05:00,
2013-03-10 07:10:00,27.2,24.4,30.24,SSW,211,1.0,3.0,89,0.00,,---,0.00,VWS V14.01,2013-03-10 11:10:00,
2013-03-10 07:15:00,27.3,24.5,30.24,SSW,203,0.0,3.0,89,0.00,,---,0.00,VWS V14.01,2013-03-10 11:15:00,
2013-03-10 07:20:00,27.3,24.5,30.24,South,183,5.0,5.0,89,0.00,,---,0.00,VWS V14.01,2013-03-10 11:20:00,
2013-03-10 07:25:00,27.4,24.6,30.24,South,187,1.0,4.0,89,0.00,,---,0.00,VWS V14.01,2013-03-10 11:25:00,
2013-03-10 07:30:00,27.5,24.7,30.25,South,188,2.0,5.0,89,0.00,,---,0.00,VWS V14.01,2013-03-10 11:30:00,
2013-03-10 07:35:00,27.5,24.7,30.25,South,188,2.0,3.0,89,0.00,,---,0.00,VWS V14.01,2013-03-10 11:35:00,
2013-03-10 07:40:00,27.6,24.8,30.25,South,188,0.0,4.0,89,0.00,,---,0.00,VWS V14.01,2013-03-10 11:40:00,
2013-03-10 07:45:00,27.6,24.8,30.25,South,190,2.0,4.0,89,0.00,,---,0.00,VWS V14.01,2013-03-10 11:45:00,
2013-03-10 07:50:00,27.6,24.5,30.25,SSW,196,1.0,4.0,88,0.00,,---,0.00,VWS V14.01,2013-03-10 11:50:00,
2013-03-10 07:55:00,27.5,24.4,30.25,SW,228,2.0,4.0,88,0.00,,---,0.00,VWS V14.01,2013-03-10 11:55:00,
2013-03-10 08:00:00,27.6,24.5,30.25,SSW,209,0.0,3.0,88,0.00,,---,0.00,VWS V14.01,2013-03-10 12:00:00,
2013-03-10 08:05:00,27.6,24.5,30.25,SSW,209,0.0,4.0,88,0.00,,---,0.00,VWS V14.01,2013-03-10 12:05:00,
2013-03-10 08:10:00,27.7,24.9,30.26,SSW,198,2.0,4.0,89,0.00,,---,0.00,VWS V14.01,2013-03-10 12:10:00,
2013-03-10 08:15:00,27.9,25.1,30.25,SSW,200,2.0,4.0,89,0.00,,---,0.00,VWS V14.01,2013-03-10 12:15:00,
2013-03-10 08:20:00,28.0,24.9,30.25,SSW,203,1.0,4.0,88,0.00,,---,0.00,VWS V14.01,2013-03-10 12:20:00,
2013-03-10 08:25:00,28.3,25.5,30.26,SSW,205,3.0,4.0,89,0.00,,---,0.00,VWS V14.01,2013-03-10 12:25:00,
2013-03-10 08:30:00,28.5,25.4,30.25,SSW,206,5.0,6.0,88,0.00,,---,0.00,VWS V14.01,2013-03-10 12:30:00,
2013-03-10 08:35:00,28.8,25.7,30.26,SSW,206,5.0,6.0,88,0.00,,---,0.00,VWS V14.01,2013-03-10 12:35:00,
2013-03-10 08:39:00,29.1,25.7,30.25,SSW,201,7.0,7.0,87,0.00,,---,0.00,VWS V14.01,2013-03-10 12:39:00,
2013-03-10 08:40:00,29.0,25.6,30.26,SSW,209,4.0,6.0,87,0.00,,---,0.00,VWS V14.01,2013-03-10 12:40:00,
2013-03-10 08:44:00,29.5,26.1,30.25,SSW,201,3.0,6.0,87,0.00,,---,0.00,VWS V14.01,2013-03-10 12:44:00,
2013-03-10 08:45:00,29.3,25.9,30.26,SW,220,1.0,7.0,87,0.00,,---,0.00,VWS V14.01,2013-03-10 12:45:00,
2013-03-10 08:49:00,30.0,26.3,30.25,SSW,201,1.0,7.0,86,0.00,,---,0.00,VWS V14.01,2013-03-10 12:49:00,
2013-03-10 08:50:00,29.8,26.1,30.25,SSE,167,0.0,6.0,86,0.00,,---,0.00,VWS V14.01,2013-03-10 12:50:00,
2013-03-10 08:54:00,30.4,26.4,30.25,SSW,207,2.0,7.0,85,0.00,,---,0.00,VWS V14.01,2013-03-10 12:54:00,
2013-03-10 08:55:00,30.2,26.5,30.25,SSW,207,4.0,7.0,86,0.00,,---,0.00,VWS V14.01,2013-03-10 12:55:00,
2013-03-10 08:59:00,30.8,26.5,30.26,SSW,200,0.0,6.0,84,0.00,,---,0.00,VWS V14.01,2013-03-10 12:59:00,
2013-03-10 09:00:00,30.6,26.4,30.25,SW,215,4.0,8.0,84,0.00,,---,0.00,VWS V14.01,2013-03-10 13:00:00,
2013-03-10 09:04:00,31.2,26.6,30.25,SSW,192,2.0,7.0,83,0.00,,---,0.00,VWS V14.01,2013-03-10 13:04:00,
2013-03-10 09:05:00,31.0,26.7,30.25,SW,225,1.0,8.0,84,0.00,,---,0.00,VWS V14.01,2013-03-10 13:05:00,
2013-03-10 09:09:00,31.6,27.0,30.26,SSW,207,4.0,6.0,83,0.00,,---,0.00,VWS V14.01,2013-03-10 13:09:00,
2013-03-10 09:10:00,31.4,26.8,30.25,SSW,209,0.0,7.0,83,0.00,,---,0.00,VWS V14.01,2013-03-10 13:10:00,
2013-03-10 09:14:00,31.9,27.3,30.25,SSW,210,2.0,6.0,83,0.00,,---,0.00,VWS V14.01,2013-03-10 13:14:00,
2013-03-10 09:15:00,31.7,27.1,30.26,SW,215,2.0,6.0,83,0.00,,---,0.00,VWS V14.01,2013-03-10 13:15:00,
2013-03-10 09:19:00,32.3,27.4,30.26,SSW,209,3.0,5.0,82,0.00,,---,0.00,VWS V14.01,2013-03-10 13:19:00,
2013-03-10 09:20:00,32.1,27.5,30.26,SSW,209,3.0,6.0,83,0.00,,---,0.00,VWS V14.01,2013-03-10 13:20:00,
2013-03-10 09:24:00,32.7,27.8,30.26,SSW,203,2.0,6.0,82,0.00,,---,0.00,VWS V14.01,2013-03-10 13:24:00,
2013-03-10 09:25:00,32.5,27.6,30.26,SSW,209,1.0,5.0,82,0.00,,---,0.00,VWS V14.01,2013-03-10 13:25:00,
2013-03-10 09:29:00,33.3,28.1,30.26,SW,231,2.0,5.0,81,0.00,,---,0.00,VWS V14.01,2013-03-10 13:29:00,
2013-03-10 09:30:00,33.1,28.2,30.26,SW,223,3.0,7.0,82,0.00,,---,0.00,VWS V14.01,2013-03-10 13:30:00,
2013-03-10 09:34:00,33.9,28.4,30.26,SW,219,4.0,4.0,80,0.00,,---,0.00,VWS V14.01,2013-03-10 13:34:00,
2013-03-10 09:35:00,33.6,28.4,30.26,SSW,192,1.0,6.0,81,0.00,,---,0.00,VWS V14.01,2013-03-10 13:35:00,
2013-03-10 09:39:00,34.4,28.6,30.26,SSW,213,1.0,5.0,79,0.00,,---,0.00,VWS V14.01,2013-03-10 13:39:00,
2013-03-10 09:40:00,34.1,28.6,30.26,SSW,211,0.0,5.0,80,0.00,,---,0.00,VWS V14.01,2013-03-10 13:40:00,
2013-03-10 09:44:00,35.1,28.9,30.26,SSW,208,0.0,5.0,78,0.00,,---,0.00,VWS V14.01,2013-03-10 13:44:00,
2013-03-10 09:45:00,34.7,28.9,30.26,SW,214,3.0,6.0,79,0.00,,---,0.00,VWS V14.01,2013-03-10 13:45:00,
2013-03-10 09:49:00,35.7,28.9,30.26,SSW,206,3.0,6.0,76,0.00,,---,0.00,VWS V14.01,2013-03-10 13:49:00,
2013-03-10 09:50:00,35.4,28.9,30.26,SSW,197,3.0,5.0,77,0.00,,---,0.00,VWS V14.01,2013-03-10 13:50:00,
2013-03-10 09:54:00,35.9,29.1,30.26,SSW,208,1.0,6.0,76,0.00,,---,0.00,VWS V14.01,2013-03-10 13:54:00,
2013-03-10 09:55:00,35.7,28.9,30.26,SW,219,2.0,6.0,76,0.00,,---,0.00,VWS V14.01,2013-03-10 13:55:00,
2013-03-10 09:59:00,36.4,28.9,30.26,SSW,197,0.0,5.0,74,0.00,,---,0.00,VWS V14.01,2013-03-10 13:59:00,
2013-03-10 10:00:00,36.1,29.0,30.26,SSW,205,0.0,6.0,75,0.00,,---,0.00,VWS V14.01,2013-03-10 14:00:00,
2013-03-10 10:04:00,37.0,29.8,30.26,SSW,195,0.0,5.0,75,0.00,,---,0.00,VWS V14.01,2013-03-10 14:04:00,
2013-03-10 10:05:00,36.6,29.4,30.26,SSW,193,0.0,5.0,75,0.00,,---,0.00,VWS V14.01,2013-03-10 14:05:00,
2013-03-10 10:09:00,37.4,29.5,30.26,SW,214,2.0,6.0,73,0.00,,---,0.00,VWS V14.01,2013-03-10 14:09:00,
2013-03-10 10:10:00,37.2,29.4,30.26,SSW,213,0.0,5.0,73,0.00,,---,0.00,VWS V14.01,2013-03-10 14:10:00,
2013-03-10 10:14:00,37.8,29.3,30.26,SSW,206,4.0,7.0,71,0.00,,---,0.00,VWS V14.01,2013-03-10 14:14:00,
2013-03-10 10:15:00,37.7,29.5,30.26,SW,219,6.0,6.0,72,0.00,,---,0.00,VWS V14.01,2013-03-10 14:15:00,
2013-03-10 10:19:00,38.4,29.5,30.25,SW,216,0.0,5.0,70,0.00,,---,0.00,VWS V14.01,2013-03-10 14:19:00,
2013-03-10 10:20:00,38.0,29.5,30.26,SW,214,2.0,7.0,71,0.00,,---,0.00,VWS V14.01,2013-03-10 14:20:00,
2013-03-10 10:24:00,38.9,29.6,30.25,SSW,210,2.0,6.0,69,0.00,,---,0.00,VWS V14.01,2013-03-10 14:24:00,
2013-03-10 10:25:00,38.7,29.8,30.26,SSW,205,1.0,6.0,70,0.00,,---,0.00,VWS V14.01,2013-03-10 14:25:00,
2013-03-10 10:29:00,39.6,29.9,30.25,SSW,205,2.0,6.0,68,0.00,,---,0.00,VWS V14.01,2013-03-10 14:29:00,
2013-03-10 10:30:00,39.3,30.0,30.25,SSW,211,0.0,6.0,69,0.00,,---,0.00,VWS V14.01,2013-03-10 14:30:00,
2013-03-10 10:34:00,40.2,30.5,30.25,SW,214,4.0,5.0,68,0.00,,---,0.00,VWS V14.01,2013-03-10 14:34:00,
2013-03-10 10:35:00,39.9,30.2,30.25,SSW,207,5.0,6.0,68,0.00,,---,0.00,VWS V14.01,2013-03-10 14:35:00,
2013-03-10 10:39:00,40.9,30.8,30.25,SW,221,2.0,5.0,67,0.00,,---,0.00,VWS V14.01,2013-03-10 14:39:00,
2013-03-10 10:40:00,40.6,30.5,30.25,SW,217,2.0,5.0,67,0.00,,---,0.00,VWS V14.01,2013-03-10 14:40:00,
2013-03-10 10:44:00,41.4,30.5,30.25,SSW,209,2.0,6.0,65,0.00,,---,0.00,VWS V14.01,2013-03-10 14:44:00,
2013-03-10 10:45:00,41.3,30.4,30.25,SW,215,5.0,7.0,65,0.00,,---,0.00,VWS V14.01,2013-03-10 14:45:00,
2013-03-10 10:49:00,42.1,31.2,30.25,SSW,202,7.0,8.0,65,0.00,,---,0.00,VWS V14.01,2013-03-10 14:49:00,
2013-03-10 10:50:00,41.8,30.5,30.25,SSW,213,5.0,7.0,64,0.00,,---,0.00,VWS V14.01,2013-03-10 14:50:00,
2013-03-10 10:54:00,42.8,31.1,30.25,SW,219,5.0,7.0,63,0.00,,---,0.00,VWS V14.01,2013-03-10 14:54:00,
2013-03-10 10:55:00,42.5,30.8,30.25,SW,230,3.0,8.0,63,0.00,,---,0.00,VWS V14.01,2013-03-10 14:55:00,
2013-03-10 10:59:00,43.4,31.3,30.25,SW,215,0.0,7.0,62,0.00,,---,0.00,VWS V14.01,2013-03-10 14:59:00,
2013-03-10 11:00:00,43.1,31.4,30.25,SW,222,6.0,8.0,63,0.00,,---,0.00,VWS V14.01,2013-03-10 15:00:00,
2013-03-10 11:04:00,44.0,31.0,30.25,SW,215,0.0,6.0,60,0.00,,---,0.00,VWS V14.01,2013-03-10 15:04:00,
2013-03-10 11:05:00,44.0,31.8,30.25,SW,215,2.0,7.0,62,0.00,,---,0.00,VWS V14.01,2013-03-10 15:05:00,
2013-03-10 11:09:00,44.6,31.6,30.25,SSW,202,3.0,5.0,60,0.00,,---,0.00,VWS V14.01,2013-03-10 15:09:00,
2013-03-10 11:10:00,44.2,31.2,30.25,SSW,211,1.0,6.0,60,0.00,,---,0.00,VWS V14.01,2013-03-10 15:10:00,
2013-03-10 11:14:00,45.8,32.7,30.25,SSW,196,0.0,4.0,60,0.00,,---,0.00,VWS V14.01,2013-03-10 15:14:00,
2013-03-10 11:15:00,45.2,32.2,30.25,SSW,194,4.0,5.0,60,0.00,,---,0.00,VWS V14.01,2013-03-10 15:15:00,
2013-03-10 11:19:00,46.7,32.3,30.25,SSW,202,3.0,4.0,57,0.00,,---,0.00,VWS V14.01,2013-03-10 15:19:00,
2013-03-10 11:20:00,46.4,32.4,30.25,SSW,200,2.0,4.0,58,0.00,,---,0.00,VWS V14.01,2013-03-10 15:20:00,
2013-03-10 11:24:00,46.9,31.1,30.25,SSW,209,2.0,5.0,54,0.00,,---,0.00,VWS V14.01,2013-03-10 15:24:00,
2013-03-10 11:25:00,46.7,31.4,30.25,SSW,203,4.0,4.0,55,0.00,,---,0.00,VWS V14.01,2013-03-10 15:25:00,
2013-03-10 11:29:00,47.6,31.8,30.25,South,180,0.0,5.0,54,0.00,,---,0.00,VWS V14.01,2013-03-10 15:29:00,
2013-03-10 11:30:00,47.3,32.0,30.25,SW,219,2.0,5.0,55,0.00,,---,0.00,VWS V14.01,2013-03-10 15:30:00,
2013-03-10 11:34:00,48.7,31.9,30.25,South,189,0.0,5.0,52,0.00,,---,0.00,VWS V14.01,2013-03-10 15:34:00,
2013-03-10 11:35:00,48.3,31.5,30.25,South,190,0.0,5.0,52,0.00,,---,0.00,VWS V14.01,2013-03-10 15:35:00,
2013-03-10 11:39:00,49.7,32.3,30.25,South,186,0.0,5.0,51,0.00,,---,0.00,VWS V14.01,2013-03-10 15:39:00,
2013-03-10 11:40:00,49.2,32.3,30.25,South,190,0.0,5.0,52,0.00,,---,0.00,VWS V14.01,2013-03-10 15:40:00,
2013-03-10 11:44:00,50.5,31.6,30.25,South,171,4.0,7.0,48,0.00,,---,0.00,VWS V14.01,2013-03-10 15:44:00,
2013-03-10 11:45:00,50.3,32.9,30.25,SSW,192,5.0,7.0,51,0.00,,---,0.00,VWS V14.01,2013-03-10 15:45:00,
2013-03-10 11:49:00,50.9,32.4,30.25,SSE,148,6.0,6.0,49,0.00,,---,0.00,VWS V14.01,2013-03-10 15:49:00,
2013-03-10 11:50:00,50.7,31.2,30.25,SSE,157,4.0,8.0,47,0.00,,---,0.00,VWS V14.01,2013-03-10 15:50:00,
2013-03-10 11:54:00,51.4,31.9,30.24,South,182,4.0,8.0,47,0.00,,---,0.00,VWS V14.01,2013-03-10 15:54:00,
2013-03-10 11:55:00,51.0,31.5,30.24,SSE,154,5.0,8.0,47,0.00,,---,0.00,VWS V14.01,2013-03-10 15:55:00,
2013-03-10 11:59:00,52.1,31.4,30.24,SSE,153,6.0,8.0,45,0.00,,---,0.00,VWS V14.01,2013-03-10 15:59:00,
2013-03-10 12:00:00,51.8,31.7,30.24,SSW,194,6.0,10.0,46,0.00,,---,0.00,VWS V14.01,2013-03-10 16:00:00,
2013-03-10 12:04:00,53.0,31.7,30.24,SSE,150,9.0,9.0,44,0.00,,---,0.00,VWS V14.01,2013-03-10 16:04:00,
2013-03-10 12:05:00,52.5,31.8,30.24,South,178,9.0,9.0,45,0.00,,---,0.00,VWS V14.01,2013-03-10 16:05:00,
2013-03-10 12:09:00,53.5,32.7,30.24,South,183,6.0,7.0,45,0.00,,---,0.00,VWS V14.01,2013-03-10 16:09:00,
2013-03-10 12:10:00,53.3,31.4,30.24,SSE,153,5.0,9.0,43,0.00,,---,0.00,VWS V14.01,2013-03-10 16:10:00,
2013-03-10 12:14:00,53.8,31.9,30.24,SSW,192,4.0,9.0,43,0.00,,---,0.00,VWS V14.01,2013-03-10 16:14:00,
2013-03-10 12:15:00,53.6,31.1,30.24,SSE,163,7.0,10.0,42,0.00,,---,0.00,VWS V14.01,2013-03-10 16:15:00,
2013-03-10 12:19:00,54.0,30.9,30.24,South,176,8.0,9.0,41,0.00,,---,0.00,VWS V14.01,2013-03-10 16:19:00,
2013-03-10 12:20:00,53.9,31.9,30.24,SE,131,6.0,9.0,43,0.00,,---,0.00,VWS V14.01,2013-03-10 16:20:00,
2013-03-10 12:24:00,54.4,31.8,30.24,SE,141,7.0,9.0,42,0.00,,---,0.00,VWS V14.01,2013-03-10 16:24:00,
2013-03-10 12:25:00,54.2,32.8,30.24,SSE,153,4.0,9.0,44,0.00,,---,0.00,VWS V14.01,2013-03-10 16:25:00,
2013-03-10 12:29:00,54.6,32.6,30.24,SSW,195,7.0,7.0,43,0.00,,---,0.00,VWS V14.01,2013-03-10 16:29:00,
2013-03-10 12:30:00,54.5,31.9,30.24,SSE,150,4.0,9.0,42,0.00,,---,0.00,VWS V14.01,2013-03-10 16:30:00,
2013-03-10 12:34:00,55.2,33.1,30.24,SE,146,7.0,8.0,43,0.00,,---,0.00,VWS V14.01,2013-03-10 16:34:00,
2013-03-10 12:35:00,54.9,31.0,30.24,SE,146,5.0,9.0,40,0.00,,---,0.00,VWS V14.01,2013-03-10 16:35:00,
2013-03-10 12:39:00,55.4,31.5,30.24,SSE,161,7.0,8.0,40,0.00,,---,0.00,VWS V14.01,2013-03-10 16:39:00,
2013-03-10 12:40:00,55.2,33.1,30.24,SSE,148,5.0,8.0,43,0.00,,---,0.00,VWS V14.01,2013-03-10 16:40:00,
2013-03-10 12:44:00,55.6,31.1,30.23,SSE,163,9.0,11.0,39,0.00,,---,0.00,VWS V14.01,2013-03-10 16:44:00,
2013-03-10 12:45:00,55.6,31.7,30.24,SE,142,8.0,9.0,40,0.00,,---,0.00,VWS V14.01,2013-03-10 16:45:00,
2013-03-10 12:49:00,55.7,31.8,30.23,South,173,5.0,9.0,40,0.00,,---,0.00,VWS V14.01,2013-03-10 16:49:00,
2013-03-10 12:50:00,55.7,31.1,30.23,SSE,153,7.0,11.0,39,0.00,,---,0.00,VWS V14.01,2013-03-10 16:50:00,
2013-03-10 12:54:00,56.0,33.2,30.23,SSE,155,2.0,9.0,42,0.00,,---,0.00,VWS V14.01,2013-03-10 16:54:00,
2013-03-10 12:55:00,55.9,30.7,30.23,South,178,5.0,9.0,38,0.00,,---,0.00,VWS V14.01,2013-03-10 16:55:00,
2013-03-10 12:59:00,56.3,31.7,30.23,SSW,196,2.0,8.0,39,0.00,,---,0.00,VWS V14.01,2013-03-10 16:59:00,
2013-03-10 13:00:00,56.3,31.7,30.23,South,187,7.0,9.0,39,0.00,,---,0.00,VWS V14.01,2013-03-10 17:00:00,
2013-03-10 13:04:00,56.9,31.6,30.23,SSE,167,6.0,8.0,38,0.00,,---,0.00,VWS V14.01,2013-03-10 17:04:00,
2013-03-10 13:05:00,56.6,33.2,30.23,SSE,167,1.0,8.0,41,0.00,,---,0.00,VWS V14.01,2013-03-10 17:05:00,
2013-03-10 13:09:00,57.1,33.0,30.22,SSW,205,3.0,7.0,40,0.00,,---,0.00,VWS V14.01,2013-03-10 17:09:00,
2013-03-10 13:10:00,57.0,31.0,30.23,SSE,159,7.0,9.0,37,0.00,,---,0.00,VWS V14.01,2013-03-10 17:10:00,
2013-03-10 13:14:00,57.5,32.1,30.22,SW,215,6.0,7.0,38,0.00,,---,0.00,VWS V14.01,2013-03-10 17:14:00,
2013-03-10 13:15:00,57.3,31.9,30.22,SW,225,3.0,7.0,38,0.00,,---,0.00,VWS V14.01,2013-03-10 17:15:00,
2013-03-10 13:19:00,57.8,32.4,30.22,SW,214,0.0,7.0,38,0.00,,---,0.00,VWS V14.01,2013-03-10 17:19:00,
2013-03-10 13:20:00,57.7,32.9,30.22,SW,228,7.0,7.0,39,0.00,,---,0.00,VWS V14.01,2013-03-10 17:20:00,
2013-03-10 13:24:00,58.2,30.0,30.22,SSW,194,7.0,9.0,34,0.00,,---,0.00,VWS V14.01,2013-03-10 17:24:00,
2013-03-10 13:25:00,58.1,30.6,30.22,South,190,6.0,10.0,35,0.00,,---,0.00,VWS V14.01,2013-03-10 17:25:00,
2013-03-10 13:29:00,58.5,32.3,30.21,SW,227,5.0,7.0,37,0.00,,---,0.00,VWS V14.01,2013-03-10 17:29:00,
2013-03-10 13:30:00,58.3,32.2,30.21,SSW,207,6.0,10.0,37,0.00,,---,0.00,VWS V14.01,2013-03-10 17:30:00,
2013-03-10 13:34:00,58.7,31.8,30.21,SW,223,3.0,7.0,36,0.00,,---,0.00,VWS V14.01,2013-03-10 17:34:00,
2013-03-10 13:35:00,58.6,32.4,30.21,SW,231,2.0,8.0,37,0.00,,---,0.00,VWS V14.01,2013-03-10 17:35:00,
2013-03-10 13:39:00,59.2,32.3,30.20,SE,143,5.0,7.0,36,0.00,,---,0.00,VWS V14.01,2013-03-10 17:39:00,
2013-03-10 13:40:00,59.0,32.8,30.21,South,184,2.0,7.0,37,0.00,,---,0.00,VWS V14.01,2013-03-10 17:40:00,
2013-03-10 13:44:00,59.3,32.4,30.20,SW,219,4.0,6.0,36,0.00,,---,0.00,VWS V14.01,2013-03-10 17:44:00,
2013-03-10 13:45:00,59.3,32.4,30.21,SE,144,5.0,7.0,36,0.00,,---,0.00,VWS V14.01,2013-03-10 17:45:00,
2013-03-10 13:49:00,59.2,31.6,30.21,SSE,157,6.0,9.0,35,0.00,,---,0.00,VWS V14.01,2013-03-10 17:49:00,
2013-03-10 13:50:00,59.3,31.0,30.21,SSE,149,4.0,9.0,34,0.00,,---,0.00,VWS V14.01,2013-03-10 17:50:00,
2013-03-10 13:54:00,59.4,31.8,30.20,SSE,165,5.0,6.0,35,0.00,,---,0.00,VWS V14.01,2013-03-10 17:54:00,
2013-03-10 13:55:00,59.3,33.0,30.21,SSW,196,3.0,9.0,37,0.00,,---,0.00,VWS V14.01,2013-03-10 17:55:00,
2013-03-10 13:59:00,59.5,32.5,30.20,SSW,206,8.0,10.0,36,0.00,,---,0.00,VWS V14.01,2013-03-10 17:59:00,
2013-03-10 14:00:00,59.5,33.2,30.20,SSW,207,4.0,10.0,37,0.00,,---,0.00,VWS V14.01,2013-03-10 18:00:00,
2013-03-10 14:04:00,59.7,31.3,30.19,SSE,160,6.0,9.0,34,0.00,,---,0.00,VWS V14.01,2013-03-10 18:04:00,
2013-03-10 14:05:00,59.7,34.1,30.20,South,181,3.0,10.0,38,0.00,,---,0.00,VWS V14.01,2013-03-10 18:05:00,
2013-03-10 14:09:00,59.4,31.8,30.19,SSE,160,7.0,11.0,35,0.00,,---,0.00,VWS V14.01,2013-03-10 18:09:00,
2013-03-10 14:10:00,59.5,31.9,30.19,SSE,152,11.0,11.0,35,0.00,,---,0.00,VWS V14.01,2013-03-10 18:10:00,
2013-03-10 14:14:00,59.6,31.9,30.19,SSW,192,5.0,10.0,35,0.00,,---,0.00,VWS V14.01,2013-03-10 18:14:00,
2013-03-10 14:15:00,59.5,33.9,30.19,SSE,155,7.0,11.0,38,0.00,,---,0.00,VWS V14.01,2013-03-10 18:15:00,
2013-03-10 14:19:00,59.7,34.1,30.18,South,171,7.0,10.0,38,0.00,,---,0.00,VWS V14.01,2013-03-10 18:19:00,
2013-03-10 14:20:00,59.5,33.2,30.19,SSE,161,5.0,10.0,37,0.00,,---,0.00,VWS V14.01,2013-03-10 18:20:00,
2013-03-10 14:24:00,60.1,31.7,30.18,SSW,213,5.0,10.0,34,0.00,,---,0.00,VWS V14.01,2013-03-10 18:24:00,
2013-03-10 14:25:00,60.0,33.7,30.18,SSE,159,5.0,10.0,37,0.00,,---,0.00,VWS V14.01,2013-03-10 18:25:00,
2013-03-10 14:29:00,60.1,32.4,30.18,SSE,166,7.0,10.0,35,0.00,,---,0.00,VWS V14.01,2013-03-10 18:29:00,
2013-03-10 14:30:00,60.2,32.5,30.18,SSW,204,8.0,10.0,35,0.00,,---,0.00,VWS V14.01,2013-03-10 18:30:00,
2013-03-10 14:34:00,60.1,31.7,30.18,SSW,207,6.0,10.0,34,0.00,,---,0.00,VWS V14.01,2013-03-10 18:34:00,
2013-03-10 14:35:00,60.0,30.8,30.18,South,190,5.0,12.0,33,0.00,,---,0.00,VWS V14.01,2013-03-10 18:35:00,
2013-03-10 14:39:00,60.3,33.9,30.18,SW,225,8.0,10.0,37,0.00,,---,0.00,VWS V14.01,2013-03-10 18:39:00,
2013-03-10 14:40:00,60.2,31.8,30.18,South,172,6.0,10.0,34,0.00,,---,0.00,VWS V14.01,2013-03-10 18:40:00,
2013-03-10 14:44:00,60.5,33.4,30.18,SW,222,8.0,10.0,36,0.00,,---,0.00,VWS V14.01,2013-03-10 18:44:00,
2013-03-10 14:45:00,60.4,32.7,30.18,SSW,194,3.0,12.0,35,0.00,,---,0.00,VWS V14.01,2013-03-10 18:45:00,
2013-03-10 14:49:00,60.6,32.8,30.18,SSW,194,10.0,14.0,35,0.00,,---,0.00,VWS V14.01,2013-03-10 18:49:00,
2013-03-10 14:50:00,60.5,32.7,30.18,SW,231,0.0,10.0,35,0.00,,---,0.00,VWS V14.01,2013-03-10 18:50:00,
2013-03-10 14:54:00,60.8,33.0,30.18,SSE,152,7.0,9.0,35,0.00,,---,0.00,VWS V14.01,2013-03-10 18:54:00,
2013-03-10 14:55:00,60.7,33.6,30.18,SSW,209,1.0,14.0,36,0.00,,---,0.00,VWS V14.01,2013-03-10 18:55:00,
2013-03-10 14:59:00,60.7,32.2,30.18,SSE,153,2.0,9.0,34,0.00,,---,0.00,VWS V14.01,2013-03-10 18:59:00,
2013-03-10 15:00:00,60.7,32.2,30.18,South,175,9.0,9.0,34,0.00,,---,0.00,VWS V14.01,2013-03-10 19:00:00,
2013-03-10 15:04:00,61.1,32.5,30.18,SW,223,5.0,9.0,34,0.00,,---,0.00,VWS V14.01,2013-03-10 19:04:00,
2013-03-10 15:05:00,61.0,33.9,30.18,SW,215,7.0,9.0,36,0.00,,---,0.00,VWS V14.01,2013-03-10 19:05:00,
2013-03-10 15:09:00,61.1,32.5,30.18,SE,138,8.0,12.0,34,0.00,,---,0.00,VWS V14.01,2013-03-10 19:09:00,
2013-03-10 15:10:00,61.2,34.1,30.18,South,171,6.0,11.0,36,0.00,,---,0.00,VWS V14.01,2013-03-10 19:10:00,
2013-03-10 15:14:00,61.2,31.9,30.18,SSW,213,5.0,12.0,33,0.00,,---,0.00,VWS V14.01,2013-03-10 19:14:00,
2013-03-10 15:15:00,61.1,32.5,30.18,SSE,163,6.0,12.0,34,0.00,,---,0.00,VWS V14.01,2013-03-10 19:15:00,
2013-03-10 15:19:00,61.4,32.8,30.18,SSW,212,4.0,11.0,34,0.00,,---,0.00,VWS V14.01,2013-03-10 19:19:00,
2013-03-10 15:20:00,61.1,31.8,30.18,South,173,7.0,12.0,33,0.00,,---,0.00,VWS V14.01,2013-03-10 19:20:00,
2013-03-10 15:24:00,61.6,31.5,30.18,SSE,148,4.0,14.0,32,0.00,,---,0.00,VWS V14.01,2013-03-10 19:24:00,
2013-03-10 15:25:00,61.6,32.2,30.18,SSE,163,2.0,11.0,33,0.00,,---,0.00,VWS V14.01,2013-03-10 19:25:00,
2013-03-10 15:29:00,62.0,33.3,30.18,WSW,254,6.0,11.0,34,0.00,,---,0.00,VWS V14.01,2013-03-10 19:29:00,
2013-03-10 15:30:00,61.7,33.1,30.18,SSW,202,7.0,14.0,34,0.00,,---,0.00,VWS V14.01,2013-03-10 19:30:00,
2013-03-10 15:34:00,62.4,32.9,30.18,SW,221,5.0,9.0,33,0.00,,---,0.00,VWS V14.01,2013-03-10 19:34:00,
2013-03-10 15:35:00,62.4,33.7,30.18,SSW,192,8.0,11.0,34,0.00,,---,0.00,VWS V14.01,2013-03-10 19:35:00,
2013-03-10 15:39:00,62.2,32.0,30.18,SSW,201,15.0,15.0,32,0.00,,---,0.00,VWS V14.01,2013-03-10 19:39:00,
2013-03-10 15:40:00,62.3,31.3,30.18,South,177,7.0,10.0,31,0.00,,---,0.00,VWS V14.01,2013-03-10 19:40:00,
2013-03-10 15:44:00,62.0,32.6,30.17,SSE,160,9.0,11.0,33,0.00,,---,0.00,VWS V14.01,2013-03-10 19:44:00,
2013-03-10 15:45:00,62.2,31.2,30.17,SE,141,10.0,15.0,31,0.00,,---,0.00,VWS V14.01,2013-03-10 19:45:00,
2013-03-10 15:49:00,62.2,31.2,30.17,SSE,154,7.0,11.0,31,0.00,,---,0.00,VWS V14.01,2013-03-10 19:49:00,
2013-03-10 15:50:00,62.2,33.5,30.17,South,172,10.0,13.0,34,0.00,,---,0.00,VWS V14.01,2013-03-10 19:50:00,
2013-03-10 15:54:00,62.1,31.9,30.17,SSE,165,9.0,12.0,32,0.00,,---,0.00,VWS V14.01,2013-03-10 19:54:00,
2013-03-10 15:55:00,62.1,32.7,30.17,South,179,8.0,11.0,33,0.00,,---,0.00,VWS V14.01,2013-03-10 19:55:00,
2013-03-10 15:59:00,62.1,31.9,30.17,SE,145,7.0,13.0,32,0.00,,---,0.00,VWS V14.01,2013-03-10 19:59:00,
2013-03-10 16:00:00,62.1,31.9,30.17,South,178,7.0,12.0,32,0.00,,---,0.00,VWS V14.01,2013-03-10 20:00:00,
2013-03-10 16:04:00,61.8,33.2,30.17,South,184,6.0,10.0,34,0.00,,---,0.00,VWS V14.01,2013-03-10 20:04:00,
2013-03-10 16:05:00,61.9,32.5,30.17,SSE,154,10.0,13.0,33,0.00,,---,0.00,VWS V14.01,2013-03-10 20:05:00,
2013-03-10 16:09:00,62.0,32.6,30.16,SSE,155,9.0,11.0,33,0.00,,---,0.00,VWS V14.01,2013-03-10 20:09:00,
2013-03-10 16:10:00,61.9,33.2,30.17,SSE,163,7.0,10.0,34,0.00,,---,0.00,VWS V14.01,2013-03-10 20:10:00,
2013-03-10 16:14:00,62.0,34.1,30.17,South,172,2.0,7.0,35,0.00,,---,0.00,VWS V14.01,2013-03-10 20:14:00,
2013-03-10 16:15:00,62.0,31.8,30.17,SW,220,7.0,11.0,32,0.00,,---,0.00,VWS V14.01,2013-03-10 20:15:00,
2013-03-10 16:19:00,62.2,32.0,30.17,South,177,8.0,16.0,32,0.00,,---,0.00,VWS V14.01,2013-03-10 20:19:00,
2013-03-10 16:20:00,62.2,33.5,30.17,South,175,13.0,13.0,34,0.00,,---,0.00,VWS V14.01,2013-03-10 20:20:00,
2013-03-10 16:24:00,61.9,31.0,30.16,SE,145,9.0,13.0,31,0.00,,---,0.00,VWS V14.01,2013-03-10 20:24:00,
2013-03-10 16:25:00,62.1,32.7,30.16,SSE,151,8.0,16.0,33,0.00,,---,0.00,VWS V14.01,2013-03-10 20:25:00,
2013-03-10 16:29:00,61.9,31.7,30.16,South,171,7.0,11.0,32,0.00,,---,0.00,VWS V14.01,2013-03-10 20:29:00,
2013-03-10 16:30:00,61.9,33.2,30.16,SSE,166,6.0,13.0,34,0.00,,---,0.00,VWS V14.01,2013-03-10 20:30:00,
2013-03-10 16:34:00,62.0,33.3,30.16,SSW,205,7.0,16.0,34,0.00,,---,0.00,VWS V14.01,2013-03-10 20:34:00,
2013-03-10 16:35:00,62.1,31.9,30.16,South,182,10.0,12.0,32,0.00,,---,0.00,VWS V14.01,2013-03-10 20:35:00,
2013-03-10 16:39:00,61.8,32.4,30.16,South,169,8.0,12.0,33,0.00,,---,0.00,VWS V14.01,2013-03-10 20:39:00,
2013-03-10 16:40:00,61.9,32.5,30.16,South,182,5.0,16.0,33,0.00,,---,0.00,VWS V14.01,2013-03-10 20:40:00,
2013-03-10 16:44:00,61.9,32.5,30.16,SSE,161,7.0,9.0,33,0.00,,---,0.00,VWS V14.01,2013-03-10 20:44:00,
2013-03-10 16:45:00,61.8,32.4,30.16,SSE,163,6.0,13.0,33,0.00,,---,0.00,VWS V14.01,2013-03-10 20:45:00,
2013-03-10 16:49:00,62.1,31.1,30.16,South,175,8.0,18.0,31,0.00,,---,0.00,VWS V14.01,2013-03-10 20:49:00,
2013-03-10 16:50:00,62.0,31.8,30.16,South,172,6.0,12.0,32,0.00,,---,0.00,VWS V14.01,2013-03-10 20:50:00,
2013-03-10 16:54:00,62.0,31.8,30.15,SSE,159,6.0,13.0,32,0.00,,---,0.00,VWS V14.01,2013-03-10 20:54:00,
2013-03-10 16:55:00,62.1,32.7,30.15,SE,138,10.0,18.0,33,0.00,,---,0.00,VWS V14.01,2013-03-10 20:55:00,
2013-03-10 16:59:00,61.9,31.7,30.15,South,174,7.0,14.0,32,0.00,,---,0.00,VWS V14.01,2013-03-10 20:59:00,
2013-03-10 17:00:00,61.9,32.5,30.15,SE,142,6.0,13.0,33,0.00,,---,0.00,VWS V14.01,2013-03-10 21:00:00,
2013-03-10 17:04:00,61.7,31.6,30.15,SSW,210,8.0,11.0,32,0.00,,---,0.00,VWS V14.01,2013-03-10 21:04:00,
2013-03-10 17:05:00,61.7,32.3,30.15,South,180,9.0,14.0,33,0.00,,---,0.00,VWS V14.01,2013-03-10 21:05:00,
2013-03-10 17:09:00,61.7,33.1,30.15,SE,135,8.0,11.0,34,0.00,,---,0.00,VWS V14.01,2013-03-10 21:09:00,
2013-03-10 17:10:00,61.7,31.6,30.15,South,171,7.0,11.0,32,0.00,,---,0.00,VWS V14.01,2013-03-10 21:10:00,
2013-03-10 17:14:00,61.6,31.5,30.15,South,185,13.0,15.0,32,0.00,,---,0.00,VWS V14.01,2013-03-10 21:14:00,
2013-03-10 17:15:00,61.6,32.2,30.15,SE,141,5.0,13.0,33,0.00,,---,0.00,VWS V14.01,2013-03-10 21:15:00,
2013-03-10 17:19:00,61.3,33.4,30.15,SSE,148,6.0,12.0,35,0.00,,---,0.00,VWS V14.01,2013-03-10 21:19:00,
2013-03-10 17:20:00,61.4,32.8,30.15,SSE,148,11.0,15.0,34,0.00,,---,0.00,VWS V14.01,2013-03-10 21:20:00,
2013-03-10 17:24:00,61.3,32.0,30.15,South,181,12.0,15.0,33,0.00,,---,0.00,VWS V14.01,2013-03-10 21:24:00,
2013-03-10 17:25:00,61.3,32.7,30.15,SE,135,9.0,13.0,34,0.00,,---,0.00,VWS V14.01,2013-03-10 21:25:00,
2013-03-10 17:29:00,61.1,31.8,30.15,SSE,163,8.0,14.0,33,0.00,,---,0.00,VWS V14.01,2013-03-10 21:29:00,
2013-03-10 17:30:00,61.2,32.6,30.15,SSE,153,11.0,15.0,34,0.00,,---,0.00,VWS V14.01,2013-03-10 21:30:00,
2013-03-10 17:34:00,61.0,31.7,30.14,SSE,158,7.0,13.0,33,0.00,,---,0.00,VWS V14.01,2013-03-10 21:34:00,
2013-03-10 17:35:00,61.1,31.8,30.15,SSE,155,7.0,15.0,33,0.00,,---,0.00,VWS V14.01,2013-03-10 21:35:00,
2013-03-10 17:39:00,61.1,31.8,30.14,SSE,153,7.0,9.0,33,0.00,,---,0.00,VWS V14.01,2013-03-10 21:39:00,
2013-03-10 17:40:00,61.0,31.7,30.14,South,175,9.0,14.0,33,0.00,,---,0.00,VWS V14.01,2013-03-10 21:40:00,
2013-03-10 17:44:00,61.1,31.8,30.14,South,180,7.0,12.0,33,0.00,,---,0.00,VWS V14.01,2013-03-10 21:44:00,
2013-03-10 17:45:00,61.1,31.8,30.14,SSE,147,12.0,13.0,33,0.00,,---,0.00,VWS V14.01,2013-03-10 21:45:00,
2013-03-10 17:49:00,60.9,31.6,30.14,SSE,167,8.0,12.0,33,0.00,,---,0.00,VWS V14.01,2013-03-10 21:49:00,
2013-03-10 17:50:00,61.1,31.8,30.14,SE,137,8.0,12.0,33,0.00,,---,0.00,VWS V14.01,2013-03-10 21:50:00,
2013-03-10 17:54:00,60.7,31.5,30.14,South,173,10.0,12.0,33,0.00,,---,0.00,VWS V14.01,2013-03-10 21:54:00,
2013-03-10 17:55:00,60.8,31.5,30.14,South,175,8.0,14.0,33,0.00,,---,0.00,VWS V14.01,2013-03-10 21:55:00,
2013-03-10 17:59:00,60.5,31.3,30.14,South,182,7.0,13.0,33,0.00,,---,0.00,VWS V14.01,2013-03-10 21:59:00,
2013-03-10 18:00:00,60.6,31.4,30.14,SSE,152,7.0,12.0,33,0.00,,---,0.00,VWS V14.01,2013-03-10 22:00:00,
2013-03-10 18:04:00,60.2,31.0,30.14,SSE,157,12.0,12.0,33,0.00,,---,0.00,VWS V14.01,2013-03-10 22:04:00,
2013-03-10 18:05:00,60.3,31.8,30.14,SSE,147,8.0,13.0,34,0.00,,---,0.00,VWS V14.01,2013-03-10 22:05:00,
2013-03-10 18:09:00,59.8,31.4,30.14,South,180,6.0,9.0,34,0.00,,---,0.00,VWS V14.01,2013-03-10 22:09:00,
2013-03-10 18:10:00,60.0,31.6,30.14,SSE,167,7.0,12.0,34,0.00,,---,0.00,VWS V14.01,2013-03-10 22:10:00,
2013-03-10 18:14:00,59.6,31.2,30.15,South,182,5.0,10.0,34,0.00,,---,0.00,VWS V14.01,2013-03-10 22:14:00,
2013-03-10 18:15:00,59.6,30.5,30.14,SSE,166,7.0,11.0,33,0.00,,---,0.00,VWS V14.01,2013-03-10 22:15:00,
2013-03-10 18:19:00,59.3,30.2,30.15,South,182,7.0,12.0,33,0.00,,---,0.00,VWS V14.01,2013-03-10 22:19:00,
2013-03-10 18:20:00,59.3,30.2,30.15,South,176,8.0,12.0,33,0.00,,---,0.00,VWS V14.01,2013-03-10 22:20:00,
2013-03-10 18:24:00,59.1,30.0,30.15,South,179,8.0,9.0,33,0.00,,---,0.00,VWS V14.01,2013-03-10 22:24:00,
2013-03-10 18:25:00,59.2,30.1,30.15,SSW,211,8.0,12.0,33,0.00,,---,0.00,VWS V14.01,2013-03-10 22:25:00,
2013-03-10 18:29:00,58.9,29.9,30.15,South,183,6.0,10.0,33,0.00,,---,0.00,VWS V14.01,2013-03-10 22:29:00,
2013-03-10 18:30:00,59.0,30.0,30.15,SSW,196,4.0,11.0,33,0.00,,---,0.00,VWS V14.01,2013-03-10 22:30:00,
2013-03-10 18:34:00,58.7,30.4,30.15,South,184,7.0,7.0,34,0.00,,---,0.00,VWS V14.01,2013-03-10 22:34:00,
2013-03-10 18:35:00,58.8,30.5,30.15,South,180,5.0,10.0,34,0.00,,---,0.00,VWS V14.01,2013-03-10 22:35:00,
2013-03-10 18:39:00,58.6,30.3,30.15,South,180,2.0,7.0,34,0.00,,---,0.00,VWS V14.01,2013-03-10 22:39:00,
2013-03-10 18:40:00,58.7,30.4,30.15,South,170,4.0,8.0,34,0.00,,---,0.00,VWS V14.01,2013-03-10 22:40:00,
2013-03-10 18:44:00,58.3,30.8,30.15,South,180,0.0,3.0,35,0.00,,---,0.00,VWS V14.01,2013-03-10 22:44:00,
2013-03-10 18:45:00,58.5,30.2,30.15,South,180,0.0,7.0,34,0.00,,---,0.00,VWS V14.01,2013-03-10 22:45:00,
2013-03-10 18:49:00,58.0,31.2,30.16,South,180,0.0,1.0,36,0.00,,---,0.00,VWS V14.01,2013-03-10 22:49:00,
2013-03-10 18:50:00,58.2,30.7,30.16,South,179,0.0,3.0,35,0.00,,---,0.00,VWS V14.01,2013-03-10 22:50:00,
2013-03-10 18:54:00,57.3,30.6,30.16,South,180,0.0,0.0,36,0.00,,---,0.00,VWS V14.01,2013-03-10 22:54:00,
2013-03-10 18:55:00,57.4,30.7,30.16,South,180,0.0,1.0,36,0.00,,---,0.00,VWS V14.01,2013-03-10 22:55:00,
2013-03-10 18:59:00,56.9,30.9,30.16,South,181,2.0,3.0,37,0.00,,---,0.00,VWS V14.01,2013-03-10 22:59:00,
2013-03-10 19:00:00,57.0,31.0,30.16,South,180,3.0,3.0,37,0.00,,---,0.00,VWS V14.01,2013-03-10 23:00:00,
2013-03-10 19:04:00,56.6,31.3,30.17,South,182,2.0,2.0,38,0.00,,---,0.00,VWS V14.01,2013-03-10 23:04:00,
2013-03-10 19:05:00,56.8,30.8,30.16,South,182,0.0,3.0,37,0.00,,---,0.00,VWS V14.01,2013-03-10 23:05:00,
2013-03-10 19:09:00,56.1,30.9,30.17,SSW,198,0.0,3.0,38,0.00,,---,0.00,VWS V14.01,2013-03-10 23:09:00,
2013-03-10 19:10:00,56.2,31.0,30.16,SSW,198,2.0,5.0,38,0.00,,---,0.00,VWS V14.01,2013-03-10 23:10:00,
2013-03-10 19:14:00,55.9,30.7,30.17,SSW,198,0.0,2.0,38,0.00,,---,0.00,VWS V14.01,2013-03-10 23:14:00,
2013-03-10 19:15:00,56.0,30.8,30.17,SSW,198,0.0,3.0,38,0.00,,---,0.00,VWS V14.01,2013-03-10 23:15:00,
2013-03-10 19:19:00,55.9,30.7,30.17,SSW,198,0.0,4.0,38,0.00,,---,0.00,VWS V14.01,2013-03-10 23:19:00,
2013-03-10 19:20:00,55.8,30.6,30.17,SSW,196,3.0,4.0,38,0.00,,---,0.00,VWS V14.01,2013-03-10 23:20:00,
2013-03-10 19:24:00,55.7,30.5,30.17,SW,220,2.0,4.0,38,0.00,,---,0.00,VWS V14.01,2013-03-10 23:24:00,
2013-03-10 19:25:00,55.8,30.6,30.17,SSW,201,0.0,4.0,38,0.00,,---,0.00,VWS V14.01,2013-03-10 23:25:00,
2013-03-10 19:29:00,55.5,30.3,30.17,SW,214,0.0,4.0,38,0.00,,---,0.00,VWS V14.01,2013-03-10 23:29:00,
2013-03-10 19:30:00,55.6,31.1,30.17,SW,217,0.0,4.0,39,0.00,,---,0.00,VWS V14.01,2013-03-10 23:30:00,
2013-03-10 19:34:00,55.3,30.8,30.16,SSW,213,0.0,3.0,39,0.00,,---,0.00,VWS V14.01,2013-03-10 23:34:00,
2013-03-10 19:35:00,55.4,30.9,30.16,SSW,213,1.0,4.0,39,0.00,,---,0.00,VWS V14.01,2013-03-10 23:35:00,
2013-03-10 19:39:00,55.2,30.7,30.16,SSW,192,0.0,3.0,39,0.00,,---,0.00,VWS V14.01,2013-03-10 23:39:00,
2013-03-10 19:40:00,55.1,30.6,30.16,SSW,192,1.0,6.0,39,0.00,,---,0.00,VWS V14.01,2013-03-10 23:40:00,
2013-03-10 19:44:00,55.1,30.6,30.17,SSW,193,1.0,4.0,39,0.00,,---,0.00,VWS V14.01,2013-03-10 23:44:00,
2013-03-10 19:45:00,55.2,30.7,30.17,SSW,192,3.0,3.0,39,0.00,,---,0.00,VWS V14.01,2013-03-10 23:45:00,
2013-03-10 19:49:00,54.2,31.6,30.17,SSW,193,0.0,0.0,42,0.00,,---,0.00,VWS V14.01,2013-03-10 23:49:00,
2013-03-10 19:50:00,54.8,31.0,30.17,SSW,193,0.0,4.0,40,0.00,,---,0.00,VWS V14.01,2013-03-10 23:50:00,
2013-03-10 19:54:00,50.9,32.4,30.16,SSW,193,0.0,0.0,49,0.00,,---,0.00,VWS V14.01,2013-03-10 23:54:00,
2013-03-10 19:55:00,52.2,33.1,30.17,SSW,193,0.0,0.0,48,0.00,,---,0.00,VWS V14.01,2013-03-10 23:55:00,
2013-03-10 19:59:00,50.1,31.7,30.17,SSW,193,0.0,1.0,49,0.00,,---,0.00,VWS V14.01,2013-03-10 23:59:00,
2013-03-10 20:00:00,49.9,32.0,30.16,SSW,193,1.0,1.0,50,0.00,,---,0.00,VWS V14.01,2013-03-11 00:00:00,
2013-03-10 20:04:00,51.0,32.5,30.17,SSW,195,3.0,3.0,49,0.00,,---,0.00,VWS V14.01,2013-03-11 00:04:00,
2013-03-10 20:05:00,50.8,31.3,30.16,SSW,193,2.0,3.0,47,0.00,,---,0.00,VWS V14.01,2013-03-11 00:05:00,
2013-03-10 20:09:00,50.9,33.4,30.17,SSW,196,0.0,0.0,51,0.00,,---,0.00,VWS V14.01,2013-03-11 00:09:00,
2013-03-10 20:10:00,50.9,32.9,30.17,SSW,196,0.0,3.0,50,0.00,,---,0.00,VWS V14.01,2013-03-11 00:10:00,
2013-03-10 20:14:00,50.1,34.6,30.17,SSW,196,0.0,0.0,55,0.00,,---,0.00,VWS V14.01,2013-03-11 00:14:00,
2013-03-10 20:15:00,50.8,33.3,30.17,SSW,196,0.0,1.0,51,0.00,,---,0.00,VWS V14.01,2013-03-11 00:15:00,
2013-03-10 20:19:00,48.5,33.1,30.16,SSW,196,0.0,0.0,55,0.00,,---,0.00,VWS V14.01,2013-03-11 00:19:00,
2013-03-10 20:20:00,48.8,33.8,30.16,SSW,196,0.0,0.0,56,0.00,,---,0.00,VWS V14.01,2013-03-11 00:20:00,
2013-03-10 20:24:00,48.7,34.6,30.16,SSW,194,2.0,3.0,58,0.00,,---,0.00,VWS V14.01,2013-03-11 00:24:00,
2013-03-10 20:25:00,48.8,33.4,30.16,SSW,195,2.0,4.0,55,0.00,,---,0.00,VWS V14.01,2013-03-11 00:25:00,
2013-03-10 20:29:00,49.3,31.5,30.16,SSW,207,0.0,6.0,50,0.00,,---,0.00,VWS V14.01,2013-03-11 00:29:00,
2013-03-10 20:30:00,48.6,32.7,30.16,SSW,194,2.0,3.0,54,0.00,,---,0.00,VWS V14.01,2013-03-11 00:30:00,
2013-03-10 20:34:00,50.5,32.1,30.16,SSW,208,0.0,4.0,49,0.00,,---,0.00,VWS V14.01,2013-03-11 00:34:00,
2013-03-10 20:35:00,50.2,31.8,30.15,SSW,208,3.0,6.0,49,0.00,,---,0.00,VWS V14.01,2013-03-11 00:35:00,
2013-03-10 20:39:00,50.2,33.3,30.16,SSW,211,0.0,0.0,52,0.00,,---,0.00,VWS V14.01,2013-03-11 00:39:00,
2013-03-10 20:40:00,50.5,33.1,30.16,SSW,211,0.0,4.0,51,0.00,,---,0.00,VWS V14.01,2013-03-11 00:40:00,
2013-03-10 20:44:00,49.7,33.8,30.17,SSW,211,0.0,0.0,54,0.00,,---,0.00,VWS V14.01,2013-03-11 00:44:00,
2013-03-10 20:45:00,49.9,33.5,30.17,SSW,211,0.0,0.0,53,0.00,,---,0.00,VWS V14.01,2013-03-11 00:45:00,
2013-03-10 20:49:00,49.4,33.5,30.17,SSW,211,0.0,2.0,54,0.00,,---,0.00,VWS V14.01,2013-03-11 00:49:00,
2013-03-10 20:50:00,49.5,33.6,30.17,SSW,211,0.0,1.0,54,0.00,,---,0.00,VWS V14.01,2013-03-11 00:50:00,
2013-03-10 20:54:00,47.8,34.2,30.17,SSW,211,0.0,1.0,59,0.00,,---,0.00,VWS V14.01,2013-03-11 00:54:00,
2013-03-10 20:55:00,48.9,33.9,30.17,SSW,211,0.0,2.0,56,0.00,,---,0.00,VWS V14.01,2013-03-11 00:55:00,
2013-03-10 20:59:00,46.7,32.7,30.17,SSW,211,0.0,1.0,58,0.00,,---,0.00,VWS V14.01,2013-03-11 00:59:00,
2013-03-10 21:00:00,46.7,33.2,30.17,SSW,211,0.0,2.0,59,0.00,,---,0.00,VWS V14.01,2013-03-11 01:00:00,
2013-03-10 21:04:00,46.1,32.2,30.17,SSW,211,0.0,0.0,58,0.00,,---,0.00,VWS V14.01,2013-03-11 01:04:00,
2013-03-10 21:05:00,46.1,32.6,30.17,SSW,211,0.0,2.0,59,0.00,,---,0.00,VWS V14.01,2013-03-11 01:05:00,
2013-03-10 21:09:00,46.6,31.8,30.17,SW,214,2.0,4.0,56,0.00,,---,0.00,VWS V14.01,2013-03-11 01:09:00,
2013-03-10 21:10:00,46.3,32.8,30.17,SW,214,3.0,4.0,59,0.00,,---,0.00,VWS V14.01,2013-03-11 01:10:00,
2013-03-10 21:14:00,48.8,31.0,30.17,SW,214,3.0,4.0,50,0.00,,---,0.00,VWS V14.01,2013-03-11 01:14:00,
2013-03-10 21:15:00,48.0,30.8,30.17,SW,214,3.0,4.0,51,0.00,,---,0.00,VWS V14.01,2013-03-11 01:15:00,
2013-03-10 21:19:00,50.3,31.4,30.17,SW,214,0.0,3.0,48,0.00,,---,0.00,VWS V14.01,2013-03-11 01:19:00,
2013-03-10 21:20:00,50.0,30.6,30.17,SSW,213,0.0,4.0,47,0.00,,---,0.00,VWS V14.01,2013-03-11 01:20:00,
2013-03-10 21:24:00,50.4,30.4,30.17,SSW,208,0.0,0.0,46,0.00,,---,0.00,VWS V14.01,2013-03-11 01:24:00,
2013-03-10 21:25:00,50.2,30.2,30.17,SSW,208,0.0,4.0,46,0.00,,---,0.00,VWS V14.01,2013-03-11 01:25:00,
2013-03-10 21:29:00,50.3,30.3,30.17,SSW,208,0.0,1.0,46,0.00,,---,0.00,VWS V14.01,2013-03-11 01:29:00,
2013-03-10 21:30:00,50.4,30.4,30.17,SSW,208,0.0,3.0,46,0.00,,---,0.00,VWS V14.01,2013-03-11 01:30:00,
2013-03-10 21:34:00,50.0,30.6,30.17,SSW,208,2.0,4.0,47,0.00,,---,0.00,VWS V14.01,2013-03-11 01:34:00,
2013-03-10 21:35:00,50.0,30.6,30.17,SSW,208,1.0,3.0,47,0.00,,---,0.00,VWS V14.01,2013-03-11 01:35:00,
2013-03-10 21:39:00,49.3,30.5,30.17,SSW,208,0.0,2.0,48,0.00,,---,0.00,VWS V14.01,2013-03-11 01:39:00,
2013-03-10 21:40:00,49.6,31.2,30.17,SSW,208,0.0,4.0,49,0.00,,---,0.00,VWS V14.01,2013-03-11 01:40:00,
2013-03-10 21:44:00,49.4,30.0,30.17,SSW,205,0.0,0.0,47,0.00,,---,0.00,VWS V14.01,2013-03-11 01:44:00,
2013-03-10 21:45:00,49.4,30.5,30.17,SSW,205,0.0,3.0,48,0.00,,---,0.00,VWS V14.01,2013-03-11 01:45:00,
2013-03-10 21:49:00,48.1,30.8,30.17,SSW,205,0.0,0.0,51,0.00,,---,0.00,VWS V14.01,2013-03-11 01:49:00,
2013-03-10 21:50:00,49.0,30.7,30.17,SSW,205,0.0,1.0,49,0.00,,---,0.00,VWS V14.01,2013-03-11 01:50:00,
2013-03-10 21:54:00,48.0,29.3,30.17,SSW,205,0.0,0.0,48,0.00,,---,0.00,VWS V14.01,2013-03-11 01:54:00,
2013-03-10 21:55:00,47.7,30.0,30.17,SSW,205,0.0,3.0,50,0.00,,---,0.00,VWS V14.01,2013-03-11 01:55:00,
2013-03-10 21:59:00,48.1,29.9,30.17,SSW,205,0.0,1.0,49,0.00,,---,0.00,VWS V14.01,2013-03-11 01:59:00,
2013-03-10 22:00:00,48.2,30.0,30.17,SSW,205,0.0,2.0,49,0.00,,---,0.00,VWS V14.01,2013-03-11 02:00:00,
2013-03-10 22:04:00,48.1,31.3,30.17,SSW,205,0.0,0.0,52,0.00,,---,0.00,VWS V14.01,2013-03-11 02:04:00,
2013-03-10 22:05:00,48.6,29.8,30.17,SSW,205,0.0,2.0,48,0.00,,---,0.00,VWS V14.01,2013-03-11 02:05:00,
2013-03-10 22:09:00,47.7,30.0,30.17,SSW,205,0.0,2.0,50,0.00,,---,0.00,VWS V14.01,2013-03-11 02:09:00,
2013-03-10 22:10:00,47.7,30.5,30.17,SSW,205,0.0,1.0,51,0.00,,---,0.00,VWS V14.01,2013-03-11 02:10:00,
2013-03-10 22:14:00,48.3,29.5,30.17,SSW,205,0.0,1.0,48,0.00,,---,0.00,VWS V14.01,2013-03-11 02:14:00,
2013-03-10 22:15:00,48.1,29.9,30.17,SSW,205,0.0,2.0,49,0.00,,---,0.00,VWS V14.01,2013-03-11 02:15:00,
2013-03-10 22:19:00,49.1,29.8,30.17,SSW,205,0.0,1.0,47,0.00,,---,0.00,VWS V14.01,2013-03-11 02:19:00,
2013-03-10 22:20:00,48.8,29.0,30.17,SSW,205,0.0,1.0,46,0.00,,---,0.00,VWS V14.01,2013-03-11 02:20:00,
2013-03-10 22:24:00,48.6,30.3,30.17,SSW,205,1.0,3.0,49,0.00,,---,0.00,VWS V14.01,2013-03-11 02:24:00,
2013-03-10 22:25:00,48.9,30.1,30.17,SSW,205,2.0,2.0,48,0.00,,---,0.00,VWS V14.01,2013-03-11 02:25:00,
2013-03-10 22:29:00,48.4,29.6,30.17,SSW,205,0.0,0.0,48,0.00,,---,0.00,VWS V14.01,2013-03-11 02:29:00,
2013-03-10 22:30:00,48.3,30.0,30.17,SSW,205,0.0,3.0,49,0.00,,---,0.00,VWS V14.01,2013-03-11 02:30:00,
2013-03-10 22:34:00,47.7,30.5,30.17,SSW,205,0.0,1.0,51,0.00,,---,0.00,VWS V14.01,2013-03-11 02:34:00,
2013-03-10 22:35:00,48.3,31.0,30.16,SSW,205,0.0,0.0,51,0.00,,---,0.00,VWS V14.01,2013-03-11 02:35:00,
2013-03-10 22:39:00,48.2,28.9,30.16,SSW,205,1.0,3.0,47,0.00,,---,0.00,VWS V14.01,2013-03-11 02:39:00,
2013-03-10 22:40:00,47.6,29.4,30.17,SSW,205,0.0,1.0,49,0.00,,---,0.00,VWS V14.01,2013-03-11 02:40:00,
2013-03-10 22:44:00,50.0,28.4,30.16,SSW,193,0.0,4.0,43,0.00,,---,0.00,VWS V14.01,2013-03-11 02:44:00,
2013-03-10 22:45:00,49.2,27.7,30.16,SSW,204,3.0,3.0,43,0.00,,---,0.00,VWS V14.01,2013-03-11 02:45:00,
2013-03-10 22:49:00,50.8,29.1,30.16,SSW,210,3.0,6.0,43,0.00,,---,0.00,VWS V14.01,2013-03-11 02:49:00,
2013-03-10 22:50:00,50.6,28.4,30.16,SSW,202,4.0,5.0,42,0.00,,---,0.00,VWS V14.01,2013-03-11 02:50:00,
2013-03-10 22:54:00,50.2,30.2,30.17,SSW,203,2.0,4.0,46,0.00,,---,0.00,VWS V14.01,2013-03-11 02:54:00,
2013-03-10 22:55:00,50.6,30.1,30.16,SSW,200,1.0,6.0,45,0.00,,---,0.00,VWS V14.01,2013-03-11 02:55:00,
2013-03-10 22:59:00,49.0,30.7,30.17,SSW,202,0.0,4.0,49,0.00,,---,0.00,VWS V14.01,2013-03-11 02:59:00,
2013-03-10 23:00:00,49.5,30.1,30.17,SSW,204,2.0,4.0,47,0.00,,---,0.00,VWS V14.01,2013-03-11 03:00:00,
2013-03-10 23:04:00,48.2,29.5,30.16,SSW,194,3.0,6.0,48,0.00,,---,0.00,VWS V14.01,2013-03-11 03:04:00,
2013-03-10 23:05:00,48.3,32.0,30.16,SSW,198,1.0,5.0,53,0.00,,---,0.00,VWS V14.01,2013-03-11 03:05:00,
2013-03-10 23:09:00,50.1,27.9,30.15,South,181,3.0,6.0,42,0.00,,---,0.00,VWS V14.01,2013-03-11 03:09:00,
2013-03-10 23:10:00,49.3,28.3,30.15,South,187,1.0,6.0,44,0.00,,---,0.00,VWS V14.01,2013-03-11 03:10:00,
2013-03-10 23:14:00,50.8,29.1,30.16,SSW,202,0.0,2.0,43,0.00,,---,0.00,VWS V14.01,2013-03-11 03:14:00,
2013-03-10 23:15:00,50.8,28.5,30.15,SSW,202,2.0,6.0,42,0.00,,---,0.00,VWS V14.01,2013-03-11 03:15:00,
2013-03-10 23:19:00,49.8,29.9,30.16,SSW,204,0.0,6.0,46,0.00,,---,0.00,VWS V14.01,2013-03-11 03:19:00,
2013-03-10 23:20:00,50.3,29.8,30.16,SSW,202,0.0,3.0,45,0.00,,---,0.00,VWS V14.01,2013-03-11 03:20:00,
2013-03-10 23:24:00,49.6,28.6,30.16,SSW,198,2.0,6.0,44,0.00,,---,0.00,VWS V14.01,2013-03-11 03:24:00,
2013-03-10 23:25:00,49.4,29.5,30.16,SW,215,4.0,6.0,46,0.00,,---,0.00,VWS V14.01,2013-03-11 03:25:00,
2013-03-10 23:29:00,50.3,28.1,30.16,SSW,199,0.0,4.0,42,0.00,,---,0.00,VWS V14.01,2013-03-11 03:29:00,
2013-03-10 23:30:00,50.0,28.4,30.15,South,189,0.0,6.0,43,0.00,,---,0.00,VWS V14.01,2013-03-11 03:30:00,
2013-03-10 23:34:00,50.5,28.3,30.16,SSW,203,0.0,6.0,42,0.00,,---,0.00,VWS V14.01,2013-03-11 03:34:00,
2013-03-10 23:35:00,50.4,28.8,30.16,South,188,0.0,5.0,43,0.00,,---,0.00,VWS V14.01,2013-03-11 03:35:00,
2013-03-10 23:39:00,50.1,29.0,30.15,SSW,198,2.0,2.0,44,0.00,,---,0.00,VWS V14.01,2013-03-11 03:39:00,
2013-03-10 23:40:00,50.4,28.8,30.15,SSW,198,0.0,6.0,43,0.00,,---,0.00,VWS V14.01,2013-03-11 03:40:00,
2013-03-10 23:44:00,49.7,28.1,30.15,South,176,0.0,5.0,43,0.00,,---,0.00,VWS V14.01,2013-03-11 03:44:00,
2013-03-10 23:45:00,49.8,28.2,30.15,South,173,0.0,8.0,43,0.00,,---,0.00,VWS V14.01,2013-03-11 03:45:00,
2013-03-10 23:49:00,49.8,28.2,30.15,SSW,194,3.0,3.0,43,0.00,,---,0.00,VWS V14.01,2013-03-11 03:49:00,
2013-03-10 23:50:00,49.8,28.2,30.15,SSW,192,0.0,5.0,43,0.00,,---,0.00,VWS V14.01,2013-03-11 03:50:00,
2013-03-10 23:54:00,49.5,28.5,30.15,SSW,194,3.0,3.0,44,0.00,,---,0.00,VWS V14.01,2013-03-11 03:54:00,
2013-03-10 23:55:00,49.6,28.0,30.15,SSW,194,0.0,5.0,43,0.00,,---,0.00,VWS V14.01,2013-03-11 03:55:00,
2013-03-10 23:59:00,48.8,30.0,30.15,SSW,198,0.0,4.0,48,0.00,,---,0.00,VWS V14.01,2013-03-11 03:59:00,